This is the latest recevied weather packets stored in our database for station/object IZ1MEU-13. If no packets are shown the sender has not sent any weather packets the latest 10 day(s).
| Time | Temp. | Humidity | Pressure | Rain* | Wind** | Luminosity | Snow |
|---|---|---|---|---|---|---|---|
| 1777591619 | 9.44° C | 55% | 1027.5 hPa | - | - | - | - |
| 1777590415 | 9.44° C | 55% | 1027.4 hPa | - | - | - | - |
| 1777589211 | 10° C | 54% | 1027.4 hPa | - | - | - | - |
| 1777588007 | 10° C | 54% | 1027.5 hPa | - | - | - | - |
| 1777586803 | 10.56° C | 54% | 1027.5 hPa | - | - | - | - |
| 1777585599 | 10.56° C | 54% | 1027.5 hPa | - | - | - | - |
| 1777584395 | 10.56° C | 54% | 1027.4 hPa | - | - | - | - |
| 1777583191 | 10.56° C | 54% | 1027.3 hPa | - | - | - | - |
| 1777581987 | 11.11° C | 54% | 1027.3 hPa | - | - | - | - |
| 1777580783 | 11.11° C | 53% | 1027.1 hPa | - | - | - | - |
| 1777579580 | 11.11° C | 53% | 1026.9 hPa | - | - | - | - |
| 1777578376 | 11.11° C | 53% | 1026.6 hPa | - | - | - | - |
| 1777577173 | 11.67° C | 52% | 1026.4 hPa | - | - | - | - |
| 1777575969 | 11.67° C | 53% | 1026.2 hPa | - | - | - | - |
| 1777574766 | 11.67° C | 52% | 1026.1 hPa | - | - | - | - |
| 1777573562 | 12.22° C | 51% | 1025.8 hPa | - | - | - | - |
| 1777572359 | 12.78° C | 51% | 1025.7 hPa | - | - | - | - |
| 1777571156 | 14.44° C | 48% | 1025.5 hPa | - | - | - | - |
| 1777569952 | 15.56° C | 47% | 1025.3 hPa | - | - | - | - |
| 1777568749 | 15.56° C | 46% | 1025.4 hPa | - | - | - | - |
| 1777567545 | 16.11° C | 45% | 1025.4 hPa | - | - | - | - |
| 1777566342 | 16.11° C | 44% | 1025.3 hPa | - | - | - | - |
| 1777565138 | 16.67° C | 45% | 1025.3 hPa | - | - | - | - |
| 1777563935 | 15.56° C | 45% | 1025.3 hPa | - | - | - | - |
| 1777562731 | 16.11° C | 44% | 1025.4 hPa | - | - | - | - |
* Rain since midnight (hover to see other rain measurements)
** Current wind speed in m/s (hover to see current wind gust speed)